TimePST,TemperatureF,Dew PointF,Humidity,Sea Level PressureIn,VisibilityMPH,Wind Direction,Wind SpeedMPH,Gust SpeedMPH,PrecipitationIn,Events,Conditions,WindDirDegrees,DateUTC
12:15 AM,30.2,28.4,93,29.82,10.0,Calm,Calm,-,N/A,,Unknown,0,2012-11-09 08:15:00
12:35 AM,28.4,28.4,100,29.83,9.0,Calm,Calm,-,N/A,,Unknown,0,2012-11-09 08:35:00
12:55 AM,28.4,28.4,100,29.83,9.0,Calm,Calm,-,N/A,,Unknown,0,2012-11-09 08:55:00
1:15 AM,28.4,26.6,93,29.83,10.0,Calm,Calm,-,N/A,,Unknown,0,2012-11-09 09:15:00
1:35 AM,30.2,28.4,93,29.84,9.0,Calm,Calm,-,N/A,,Unknown,0,2012-11-09 09:35:00
1:55 AM,30.2,28.4,93,29.85,10.0,Calm,Calm,-,N/A,,Unknown,0,2012-11-09 09:55:00
2:15 AM,30.2,28.4,93,29.85,10.0,Calm,Calm,-,N/A,,Unknown,0,2012-11-09 10:15:00
2:35 AM,30.2,28.4,93,29.85,10.0,Calm,Calm,-,N/A,,Unknown,0,2012-11-09 10:35:00
2:55 AM,32.0,28.4,87,29.86,10.0,Calm,Calm,-,N/A,,Unknown,0,2012-11-09 10:55:00
3:15 AM,30.2,28.4,93,29.85,10.0,Calm,Calm,-,N/A,,Unknown,0,2012-11-09 11:15:00
3:35 AM,30.2,28.4,93,29.86,10.0,Calm,Calm,-,N/A,,Unknown,0,2012-11-09 11:35:00
3:55 AM,30.2,28.4,93,29.87,10.0,Calm,Calm,-,N/A,,Unknown,0,2012-11-09 11:55:00
4:15 AM,32.0,28.4,87,29.86,10.0,Calm,Calm,-,N/A,,Unknown,0,2012-11-09 12:15:00
4:35 AM,32.0,28.4,87,29.87,10.0,Calm,Calm,-,N/A,,Unknown,0,2012-11-09 12:35:00
4:55 AM,32.0,28.4,87,29.87,10.0,Calm,Calm,-,N/A,,Unknown,0,2012-11-09 12:55:00
5:15 AM,32.0,28.4,87,29.87,10.0,Calm,Calm,-,N/A,,Unknown,0,2012-11-09 13:15:00
5:35 AM,32.0,30.2,93,29.88,7.0,Calm,Calm,-,N/A,,Unknown,0,2012-11-09 13:35:00
5:55 AM,32.0,30.2,93,29.88,9.0,Calm,Calm,-,N/A,,Unknown,0,2012-11-09 13:55:00
6:15 AM,32.0,30.2,93,29.88,10.0,Calm,Calm,-,N/A,,Unknown,0,2012-11-09 14:15:00
6:35 AM,32.0,30.2,93,29.88,10.0,Calm,Calm,-,N/A,,Unknown,0,2012-11-09 14:35:00
6:55 AM,32.0,30.2,93,29.89,10.0,Calm,Calm,-,N/A,,Unknown,0,2012-11-09 14:55:00
7:15 AM,32.0,30.2,93,29.89,10.0,Calm,Calm,-,N/A,,Unknown,0,2012-11-09 15:15:00
7:35 AM,32.0,30.2,93,29.90,10.0,Calm,Calm,-,N/A,,Unknown,0,2012-11-09 15:35:00
7:55 AM,32.0,30.2,93,29.90,5.0,Calm,Calm,-,N/A,,Unknown,0,2012-11-09 15:55:00
8:15 AM,32.0,32.0,100,29.91,2.5,Calm,Calm,-,N/A,,Unknown,0,2012-11-09 16:15:00
8:35 AM,32.0,30.2,93,29.91,10.0,Calm,Calm,-,N/A,,Unknown,0,2012-11-09 16:35:00
8:55 AM,32.0,30.2,93,29.91,10.0,Calm,Calm,-,N/A,,Unknown,0,2012-11-09 16:55:00
9:15 AM,33.8,30.2,87,29.91,10.0,Calm,Calm,-,N/A,,Unknown,0,2012-11-09 17:15:00
9:35 AM,35.6,28.4,75,29.91,10.0,SE,3.5,-,N/A,,Unknown,140,2012-11-09 17:35:00
9:55 AM,35.6,26.6,70,29.91,10.0,Calm,Calm,-,N/A,,Unknown,0,2012-11-09 17:55:00
10:15 AM,35.6,28.4,75,29.91,10.0,Calm,Calm,-,N/A,,Unknown,0,2012-11-09 18:15:00
10:35 AM,35.6,28.4,75,29.91,10.0,Calm,Calm,-,N/A,,Unknown,0,2012-11-09 18:35:00
10:55 AM,37.4,28.4,70,29.91,10.0,NW,3.5,-,N/A,,Unknown,310,2012-11-09 18:55:00
11:15 AM,37.4,28.4,70,29.90,10.0,Calm,Calm,-,N/A,,Unknown,0,2012-11-09 19:15:00
11:35 AM,39.2,28.4,65,29.89,10.0,Calm,Calm,-,N/A,,Unknown,0,2012-11-09 19:35:00
11:55 AM,41.0,28.4,61,29.88,10.0,South,3.5,-,N/A,,Unknown,180,2012-11-09 19:55:00
12:15 PM,41.0,28.4,61,29.87,10.0,SSE,3.5,-,N/A,,Unknown,150,2012-11-09 20:15:00
12:35 PM,42.8,28.4,57,29.87,10.0,SSE,3.5,-,N/A,,Unknown,150,2012-11-09 20:35:00
12:55 PM,42.8,28.4,57,29.86,10.0,Calm,Calm,-,N/A,,Unknown,0,2012-11-09 20:55:00
1:15 PM,44.6,28.4,53,29.86,10.0,SW,10.4,-,N/A,,Unknown,220,2012-11-09 21:15:00
1:35 PM,44.6,28.4,53,29.85,10.0,West,4.6,-,N/A,,Unknown,280,2012-11-09 21:35:00
1:55 PM,42.8,28.4,57,29.84,10.0,SSW,8.1,-,N/A,,Unknown,200,2012-11-09 21:55:00
2:15 PM,44.6,28.4,53,29.84,10.0,SSW,5.8,-,N/A,,Unknown,210,2012-11-09 22:15:00
2:35 PM,44.6,28.4,53,29.84,10.0,SSW,9.2,-,N/A,,Unknown,200,2012-11-09 22:35:00
2:55 PM,44.6,28.4,53,29.84,10.0,SW,11.5,-,N/A,,Unknown,220,2012-11-09 22:55:00
3:15 PM,44.6,30.2,57,29.85,10.0,West,5.8,-,N/A,,Unknown,260,2012-11-09 23:15:00
3:35 PM,44.6,30.2,57,29.84,10.0,West,5.8,-,N/A,,Unknown,270,2012-11-09 23:35:00
3:55 PM,42.8,30.2,61,29.84,10.0,South,3.5,-,N/A,,Unknown,190,2012-11-09 23:55:00
4:15 PM,41.0,30.2,65,29.85,10.0,South,5.8,-,N/A,,Unknown,190,2012-11-10 00:15:00
4:35 PM,41.0,30.2,65,29.85,10.0,SW,5.8,-,N/A,,Unknown,220,2012-11-10 00:35:00
4:55 PM,41.0,28.4,61,29.85,10.0,SSE,3.5,-,N/A,,Unknown,160,2012-11-10 00:55:00
5:15 PM,39.2,28.4,65,29.86,10.0,SSE,3.5,-,N/A,,Unknown,160,2012-11-10 01:15:00
5:35 PM,39.2,28.4,65,29.86,10.0,SSW,4.6,-,N/A,,Unknown,210,2012-11-10 01:35:00
5:55 PM,39.2,28.4,65,29.87,10.0,South,4.6,-,N/A,,Unknown,180,2012-11-10 01:55:00
6:15 PM,37.4,28.4,70,29.87,10.0,SSE,3.5,-,N/A,,Unknown,160,2012-11-10 02:15:00
6:35 PM,37.4,28.4,70,29.88,10.0,South,4.6,-,N/A,,Unknown,170,2012-11-10 02:35:00
6:55 PM,37.4,28.4,70,29.88,10.0,South,3.5,-,N/A,,Unknown,180,2012-11-10 02:55:00
7:55 PM,32.0,28.4,87,29.89,10.0,Calm,Calm,-,N/A,,Unknown,0,2012-11-10 03:55:00
8:15 PM,32.0,28.4,87,29.89,10.0,NE,3.5,-,N/A,,Unknown,50,2012-11-10 04:15:00
8:35 PM,30.2,28.4,93,29.89,10.0,Calm,Calm,-,N/A,,Unknown,0,2012-11-10 04:35:00
8:55 PM,32.0,28.4,87,29.90,10.0,SE,3.5,-,N/A,,Unknown,140,2012-11-10 04:55:00
9:15 PM,32.0,28.4,87,29.90,10.0,SE,3.5,-,N/A,,Unknown,130,2012-11-10 05:15:00
9:35 PM,35.6,30.2,81,29.90,10.0,SSW,3.5,-,N/A,,Unknown,210,2012-11-10 05:35:00
9:55 PM,37.4,28.4,70,29.90,10.0,SW,3.5,-,N/A,,Unknown,220,2012-11-10 05:55:00
10:15 PM,37.4,28.4,70,29.90,10.0,West,3.5,-,N/A,,Unknown,260,2012-11-10 06:15:00
10:35 PM,37.4,28.4,70,29.90,10.0,SW,5.8,-,N/A,,Unknown,230,2012-11-10 06:35:00
10:55 PM,37.4,28.4,70,29.90,10.0,South,5.8,-,N/A,,Unknown,190,2012-11-10 06:55:00
11:15 PM,35.6,28.4,75,29.90,10.0,SSE,3.5,-,N/A,,Unknown,160,2012-11-10 07:15:00
11:55 PM,32.0,28.4,87,29.91,10.0,Calm,Calm,-,N/A,,Unknown,0,2012-11-10 07:55:00